{"data":{"norad_id":27607,"intl_designator":"2002-058C","name":"SAUDISAT 1C (SO-50)","alt_names":[],"object_type":"PAYLOAD","status":"ACTIVE","operator":null,"country":"SAUD","launch_date":"2002-12-20","launch_site_code":"TYMSC","launch_vehicle":null,"mission":null,"orbit_class":"UNKNOWN","rcs_meters":0.0905,"size_class":null,"mass_kg":null,"dimensions":null,"purposes":["comms","tech_demo"],"wikipedia_slug":null,"has_3d_model":false,"image_url":null,"decayed_at":null,"tle_current":{"epoch":"2026-09-19T05:13:39.005184Z","epoch_age_seconds":125249,"freshness":"FRESH","line1":"1 27607U 02058C   26262.21781256  .00000644  00000+0  93607-4 0  9999","line2":"2 27607  64.5523 198.0161 0071734 245.1928 114.1705 14.83218520278402","mean_motion":14.8321852,"eccentricity":0.0071734,"inclination_deg":64.5523,"raan_deg":198.0161,"arg_perigee_deg":245.1928,"mean_anomaly_deg":114.1705,"bstar":9.3607e-5,"rev_number":27840,"period_min":97.086166372842,"perigee_km":568.98862994055,"apogee_km":669.3777834822,"semimajor_km":6997.3202067114,"source":"CELESTRAK","updated_at":"2026-09-20T09:00:47.583714Z"}}}